Погода в Комсомольске

Россия / Кемеровская область (Кузбасс)     55°37′48″N   88°10′54″E
темп.,
°C
ветер,
м/с
пор.,
м/с
влажн.,
%
обл.,
%
осадки,
мм/ч
давл.,
гПа
погр.,
м
23 января, вс
вс2301:00−17ююз1198100 0.0 103512
04:00−17ю1198100 0.0 103514
07:00−17ю1198100 0.0 103511
10:00−17ю1197100 0.0 103515
13:00−12зсз1186100 0.0 1034155
16:00−11с1191100 0.0 1034106
19:00−12св1196100 0.3 103568
22:00−12ссз0096100 0.7 103552
24 января, пн
пн2401:00−14с119886 1.1 103520
04:00−18ююз1110088 0.1 10369
07:00−21ююз2110052 0.1 103811
10:00−21зюз1110065 0.0 104014
13:00−14з138941 0.0 1038203
16:00−13зсз139498 0.0 1038140
19:00−15зюз2596100 0.0 1039149
22:00−15зюз2692100 0.0 1039167
25 января, вт
вт2501:00−14зюз2791100 0.0 1038242
04:00−14зюз2591100 0.0 1037182
07:00−18юз119773 0.0 103723
10:00−20ююз1297100 0.0 103650
13:00−13з2686100 0.0 1035417
16:00−12з369192 0.1 1033445
19:00−16зсз1198100 0.2 103414
22:00−16зюз1298100 0.3 103588
26 января, ср
ср2601:00−15зюз1397100 0.6 1035165
04:00−16зюз1198100 0.3 103523
07:00−18ююз1198100 0.4 103613
10:00−18ююз1198100 0.1 103633
13:00−14з2388100 0.3 1036423
16:00−14с1294100 0.1 1036128
19:00−19юв11100100 0.1 10389
22:00−21ююв1110066 0.0 10399
27 января, чт
чт2701:00−24ююв2110071 0.0 103910
04:00−24ююв1110080 0.0 104010
07:00−25ююв119991 0.0 10409
10:00−25юв1110025 0.0 104112
13:00−17всв11915 0.0 1039124
16:00−17св119513 0.0 103954
19:00−24ююв1110022 0.0 10419
22:00−25ююв1110050 0.0 10419